Miscellaneous Local Product
Issued by NWS Hastings, NE

Home | Current Version | Previous Version | Text Only | Print | Product List | Glossary On
Versions: 1 2 3 4 5 6 7 8 9 10 11 12 13 14 15 16 17 18 19 20 21 22 23 24 25 26 27 28 29 30 31 32 33 34 35 36 37 38 39 40 41 42 43 44 45 46 47 48 49 50
000
AXUS43 KGID 220802
MISGRI

GID CWA HOURLY WEATHER ROUNDUP
NATIONAL WEATHER SERVICE HASTINGS NE
300 AM CDT FRI MAY 22 2015

NOTE: "FAIR" INDICATES FEW OR NO CLOUDS BELOW 12,000 FEET WITH NO
SIGNIFICANT WEATHER AND/OR OBSTRUCTIONS TO VISIBILITY.

...SOUTH CENTRAL NEBRASKA...

CITY           SKY/WX    TMP DP  RH WIND       PRES   REMARKS
GRAND ISLAND   MOCLDY    50  41  71 CALM      30.21F
HASTINGS       MOCLDY    48  41  76 CALM      30.20F
KEARNEY        MOCLDY    45  39  81 CALM      30.20F
ORD            PTCLDY    40  35  83 CALM      30.19F
YORK           MOCLDY    50  43  76 SW7       30.22S
AURORA         MOCLDY    49  40  73 CALM      30.21F
LEXINGTON      PTCLDY    47  41  80 S3        30.20S
HOLDREGE       MOCLDY    47  40  75 S6        30.20F
HEBRON         MOCLDY    46  43  88 CALM      30.22F

...NEBRASKA PANHANDLE...

CITY           SKY/WX    TMP DP  RH WIND       PRES   REMARKS
CHADRON        CLOUDY    53  44  71 SE13      30.10S
ALLIANCE       CLOUDY    50  42  74 SE16      30.11S
SCOTTSBLUFF    CLOUDY    51  45  79 SE12      30.10S
SIDNEY         CLOUDY    49  43  80 SE12      30.12F

...WESTERN AND NORTH CENTRAL NEBRASKA...

CITY           SKY/WX    TMP DP  RH WIND       PRES   REMARKS
VALENTINE      CLEAR     46  38  73 CALM      30.16F
AINSWORTH      CLEAR     42  37  83 S6        30.18F
ONEILL         CLEAR     47  37  68 SW6       30.20F
BROKEN BOW     PTCLDY    41  38  89 CALM      30.19F
IMPERIAL       CLOUDY    47  43  86 S7        30.15F
NORTH PLATTE   PTCLDY    45  41  86 E8        30.17F
MCCOOK         CLOUDY    47  43  86 SE6       30.17F

...EASTERN NEBRASKA...

CITY           SKY/WX    TMP DP  RH WIND       PRES   REMARKS
NORFOLK        CLEAR     47  40  76 CALM      30.19F
SO SIOUX CITY  CLEAR     52  37  56 NW5       30.19R
TEKAMAH        CLEAR     53  40  61 SW6       30.19R
COLUMBUS       PTCLDY    45  36  70 CALM      30.23F
ALBION         CLEAR     43  36  74 CALM      30.21S
OMAHA EPPLEY   PTCLDY    59  40  49 W5        30.20S
OFFUTT AFB     CLEAR     47  42  82 CALM      30.19F
MILLARD        CLEAR     51  43  76 CALM      30.21R
LINCOLN        MOCLDY    53  42  66 W3        30.22F
NEBRASKA CITY  CLEAR     52  39  61 W9        30.20F
BEATRICE       MOCLDY    49  44  81 CALM      30.21F
FALLS CITY     PTCLDY    51  44  77 CALM      30.20S

...NORTHERN KANSAS...

CITY           SKY/WX    TMP DP  RH WIND       PRES   REMARKS
GOODLAND       CLOUDY    48  46  93 SE9       30.15F
HILL CITY      CLOUDY    48  44  86 CALM      30.20F
NORTON         SUNNY     48  43  81 E3        30.18F
PHILLIPSBURG   CLEAR     48  46  93 NE5       30.20F
SMITH CENTER   CLEAR     46  43  87 E6        30.20F
HAYS           CLOUDY    50  41  71 CALM      30.21R
RUSSELL        CLOUDY    50  46  86 SE7       30.19F
CONCORDIA      PTCLDY    46  43  89 SE3       30.21F
SALINA         MOCLDY    52  44  74 CALM      30.22S
TOPEKA         CLEAR     50  48  93 CALM      30.21F



USA.gov is the U.S. government's official web portal to all federal, state and local government web resources and services.